EW7154 Weather Reports


Display with metric or nautical units.
time (UTC)temp
F
wind
direction
speed
MPH
gust
MPH
rain 1hr
in
rain 24hr
in
rain mn
in
humidity
%
barometer
mb
20260906092245 65 45 0.0 0.0 0.00 0.00 0.00 95 1019.6
20260906091245 65 45 0.0 0.0 0.00 0.00 0.00 95 1019.6
20260906090344 65 360 0.0 0.0 0.00 0.00 0.00 95 1019.6
20260906085344 66 67 2.0 4.0 0.00 0.00 0.00 95 1019.6
20260906084344 66 67 2.0 4.0 0.00 0.00 0.00 95 1019.6
20260906082444 66 47 1.0 4.0 0.00 0.00 0.00 93 1019.3
20260906081446 67 64 4.0 9.0 0.00 0.00 0.00 93 1019.2
20260906074445 68 86 3.0 5.0 0.00 0.00 0.00 91 1019.2
20260906073444 68 80 3.0 4.0 0.00 0.00 0.00 91 1019.2
20260906072445 68 84 4.0 6.0 0.00 0.00 0.00 90 1019.6
20260906071444 68 28 1.0 3.0 0.00 0.00 0.00 90 1019.2
20260906065545 69 49 2.0 5.0 0.00 0.00 0.00 90 1019.2
20260906064546 69 75 3.0 4.0 0.00 0.00 0.00 89 1019.2
20260906063643 69 20 0.0 4.0 0.00 0.00 0.00 89 1019.2
20260906062643 70 71 3.0 5.0 0.00 0.00 0.00 89 1019.6
20260906061743 70 39 2.0 4.0 0.00 0.00 0.00 89 1019.2
20260906061644 70 74 4.0 7.0 0.00 0.00 0.00 89 1019.2
20260906060646 70 15 2.0 4.0 0.00 0.00 0.00 89 1019.2
20260906060544 70 8 3.0 7.0 0.00 0.00 0.00 89 1019.2
20260906055544 71 26 3.0 6.0 0.00 0.00 0.00 88 1018.9
20260906053546 71 36 2.0 4.0 0.00 0.00 0.00 88 1018.9
20260906052644 71 83 4.0 5.0 0.00 0.00 0.00 88 1018.6
20260906051645 71 18 2.0 6.0 0.00 0.00 0.00 88 1018.5
20260906050742 71 64 1.0 3.0 0.00 0.00 0.00 87 1018.5
20260906045745 71 355 0.0 2.0 0.00 0.00 0.00 87 1018.5
20260906044844 72 45 0.0 1.0 0.00 0.00 0.00 87 1018.5
20260906043843 72 67 3.0 4.0 0.00 0.00 0.00 86 1018.5
20260906042843 72 44 1.0 4.0 0.00 0.00 0.00 86 1018.5
20260906041844 72 45 2.0 3.0 0.00 0.00 0.00 86 1018.5
20260906040944 72 55 0.0 4.0 0.00 0.00 0.00 86 1018.5
20260906035043 72 62 3.0 5.0 0.00 0.00 0.00 85 1018.2
20260906034044 72 55 2.0 4.0 0.00 0.00 0.00 85 1018.2
20260906032145 72 74 3.0 4.0 0.00 0.00 0.00 85 1018.2
20260906031145 72 44 1.0 3.0 0.00 0.00 0.00 85 1017.9
20260906030244 72 45 1.0 4.0 0.00 0.00 0.00 84 1018.2
20260906030144 72 42 2.0 4.0 0.00 0.00 0.00 84 1018.2
20260906025242 72 61 1.0 4.0 0.00 0.00 0.00 84 1017.9
20260906023243 73 41 2.0 4.0 0.00 0.00 0.00 84 1017.9
20260906022243 72 30 1.0 4.0 0.00 0.00 0.00 84 1017.9
20260906021245 72 67 2.0 4.0 0.00 0.00 0.00 84 1017.9
20260906020244 72 74 2.0 5.0 0.00 0.00 0.00 84 1017.9
20260906015344 73 71 1.0 5.0 0.00 0.00 0.00 84 1017.9
20260906014343 73 63 1.0 5.0 0.00 0.00 0.00 84 1017.5
20260906013344 73 70 6.0 10.0 0.00 0.00 0.00 84 1017.5
20260906012345 73 60 1.0 3.0 0.00 0.00 0.00 85 1017.5
20260906010344 73 90 3.0 5.0 0.00 0.00 0.00 85 1017.2
20260906005443 73 58 2.0 6.0 0.00 0.00 0.00 84 1017.2
20260906003444 74 66 3.0 6.0 0.00 0.00 0.00 84 1016.8
20260906002444 74 54 4.0 10.0 0.00 0.00 0.00 84 1016.8
20260906001443 74 66 5.0 11.0 0.00 0.00 0.00 84 1016.8
20260905235444 75 33 3.0 6.0 0.00 0.00 0.00 82 1016.5
20260905234442 76 27 5.0 13.0 0.00 0.00 0.00 81 1016.5
20260905233443 77 38 4.0 8.0 0.00 0.00 0.00 79 1016.1
20260905232444 78 30 4.0 8.0 0.00 0.00 0.00 77 1016.1
20260905231542 80 68 5.0 9.0 0.00 0.00 0.00 76 1016.1
20260905230545 80 66 5.0 9.0 0.00 0.00 0.00 75 1016.1
20260905225643 81 19 1.0 4.0 0.00 0.00 0.00 73 1015.8
20260905224643 82 71 6.0 12.0 0.00 0.00 0.00 71 1015.8
20260905223643 82 71 2.0 4.0 0.00 0.00 0.00 71 1015.4
20260905222741 83 6 3.0 5.0 0.00 0.00 0.00 69 1015.1
20260905221744 84 52 4.0 7.0 0.00 0.00 0.00 67 1015.1
20260905220742 84 49 2.0 5.0 0.00 0.00 0.00 66 1015.1
20260905215841 84 57 2.0 7.0 0.00 0.00 0.00 66 1015.1
20260905215742 84 27 3.0 7.0 0.00 0.00 0.00 66 1015.1
20260905214744 84 35 4.0 8.0 0.00 0.00 0.00 68 1015.1
20260905212844 84 347 4.0 8.0 0.00 0.00 0.00 70 1015.1
20260905211844 85 356 6.0 9.0 0.00 0.00 0.00 70 1014.7
20260905205844 84 39 3.0 6.0 0.00 0.00 0.00 69 1014.7
20260905203943 85 14 0.0 2.0 0.00 0.00 0.00 68 1014.8
20260905202944 86 331 3.0 7.0 0.00 0.00 0.00 67 1014.8
20260905201946 85 328 6.0 10.0 0.00 0.00 0.00 69 1014.7
20260905200944 86 48 4.0 9.0 0.00 0.00 0.00 69 1015.1
20260905195944 85 7 2.0 5.0 0.00 0.00 0.00 71 1015.1
20260905195041 84 5 2.0 4.0 0.00 0.00 0.00 71 1015.1
20260905194042 85 21 2.0 8.0 0.00 0.00 0.00 68 1015.1
20260905193044 86 17 2.0 4.0 0.00 0.00 0.00 66 1015.1
20260905192143 86 71 3.0 6.0 0.00 0.00 0.00 68 1015.1
20260905191143 85 360 2.0 4.0 0.00 0.00 0.00 67 1015.1
20260905190242 86 31 2.0 4.0 0.00 0.00 0.00 66 1015.1
20260905185242 88 352 3.0 6.0 0.00 0.00 0.00 63 1015.1
20260905185141 88 13 3.0 6.0 0.00 0.00 0.00 63 1015.1
20260905184142 89 357 3.0 5.0 0.00 0.00 0.00 63 1015.4
20260905183143 88 322 2.0 4.0 0.00 0.00 0.00 66 1015.4
20260905182145 87 4 3.0 4.0 0.00 0.00 0.00 69 1015.4
20260905181145 87 67 0.0 1.0 0.00 0.00 0.00 66 1015.4
20260905174342 88 270 1.0 2.0 0.00 0.00 0.00 67 1015.8
20260905173345 87 74 1.0 3.0 0.00 0.01 0.00 66 1015.8
20260905172443 89 314 2.0 5.0 0.00 0.03 0.00 65 1015.8
20260905171443 88 44 1.0 3.0 0.00 0.03 0.00 66 1015.8
20260905170445 88 309 1.0 4.0 0.00 0.03 0.00 67 1016.1
20260905165446 87 289 0.0 2.0 0.00 0.03 0.00 69 1016.1
20260905164444 86 292 0.0 0.0 0.00 0.03 0.00 69 1016.1
20260905163444 86 67 0.0 0.0 0.00 0.03 0.00 71 1016.1
20260905162442 84 112 0.0 1.0 0.00 0.03 0.00 74 1016.1
20260905161541 83 293 0.0 3.0 0.00 0.03 0.00 76 1016.2
20260905160545 83 90 0.0 0.0 0.00 0.03 0.00 76 1016.1
20260905155543 83 90 0.0 0.0 0.00 0.03 0.00 75 1016.4
20260905154642 83 360 0.0 0.0 0.00 0.03 0.00 76 1016.4
20260905152741 81 29 1.0 3.0 0.00 0.03 0.00 77 1016.1
20260905151743 82 100 1.0 5.0 0.00 0.03 0.00 79 1016.1
20260905150743 80 45 0.0 0.0 0.00 0.03 0.00 81 1016.1
20260905145743 79 46 1.0 3.0 0.00 0.03 0.00 84 1016.1
20260905144743 78 45 1.0 3.0 0.00 0.03 0.00 85 1016.4
20260905143742 77 360 1.0 3.0 0.00 0.03 0.00 85 1016.5
20260905142745 77 35 1.0 3.0 0.00 0.03 0.00 85 1016.1
20260905141743 77 67 0.0 0.0 0.00 0.03 0.00 86 1016.1
20260905135801 75 45 0.0 0.0 0.00 0.03 0.00 88 1016.1
20260905134842 75 45 0.0 0.0 0.00 0.03 0.00 88 1016.1
20260905133844 75 45 1.0 3.0 0.00 0.03 0.00 89 1016.1
20260905132843 74 66 2.0 3.0 0.00 0.03 0.00 89 1016.1
20260905130943 75 67 2.0 4.0 0.00 0.03 0.00 90 1015.8
20260905125943 75 1 1.0 2.0 0.00 0.03 0.00 93 1015.8
20260905125042 75 360 0.0 0.0 0.00 0.03 0.00 94 1015.8
20260905124043 75 360 0.0 0.0 0.00 0.03 0.00 95 1015.7
20260905123043 73 90 0.0 0.0 0.00 0.03 0.00 94 1015.4
20260905121044 72 90 0.0 0.0 0.00 0.03 0.00 95 1015.4
20260905120043 71 90 0.0 0.0 0.00 0.03 0.00 95 1015.4
20260905115142 71 90 0.0 1.0 0.00 0.03 0.00 95 1015.4
20260905115044 71 90 1.0 3.0 0.00 0.03 0.00 95 1015.4
20260905114043 71 22 1.0 2.0 0.00 0.03 0.00 95 1015.4
20260905113141 71 360 0.0 0.0 0.00 0.03 0.00 95 1015.1
20260905112142 71 360 0.0 0.0 0.00 0.03 0.00 95 1015.1
20260905111142 71 360 0.0 0.0 0.00 0.03 0.00 95 1015.1
20260905110143 71 360 0.0 0.0 0.00 0.03 0.00 96 1015.1
20260905105144 71 270 0.0 0.0 0.00 0.03 0.00 96 1014.7
20260905103243 70 45 0.0 0.0 0.00 0.03 0.00 95 1014.7
20260905101344 70 45 0.0 0.0 0.00 0.03 0.00 95 1014.7
20260905100442 71 45 0.0 0.0 0.00 0.03 0.00 95 1014.7
20260905095443 71 45 0.0 1.0 0.00 0.03 0.00 95 1014.7
20260905094443 71 202 0.0 1.0 0.00 0.03 0.00 95 1014.6